NOAA 16 DEB, 42390

Orbit data source: Space-Track

NOAA 16 DEB, 42390 is space debris in SSO originally from a launch on Thu, 21 Sep 2000 UTC launched from the Air Force Western Test Range (AFWTR). Debris objects in space refer to the collection of defunct objects orbiting the Earth. Examples of debris include non-operational satellites, rocket bodies, and fragments generated from explosions, collisions, or faulty payload assembly.

Loading next visibility...
Identifier
42390, 2000-055SJ
Orbit
SSO
Last TLE update
2 days ago
Origin
Manufacturer
Unknown
Mission
Spacecraft
Bus & Motor
Unknown
Mass
Unknown
Launch date (UTC)
2000-09-21 (25 years ago)
Launch vehicle
Unknown
Launch site
Air Force Western Test Range (AFWTR)
Object type
Payload
Rocket body
Debris
Shape & HBR
Unknown
Radar Cross Section
Small (<0.1 m²)

Expand to show TLE details & history

TLE from 2 days ago
0 NOAA 16 DEB
1 42390U 00055SJ  25180.14754254  .00001642  00000-0  68961-3 0  9992
2 42390  98.6454 253.4501 0017325 130.3201 229.9497 14.27143794483980
Epoch: 2025-06-29T03:32Z
TLE epoch observation values (Epoch: 2025-06-29T03:32:27.675Z)
Latitude
0.00003°
Longitude
-77.14109°
Altitude
812.238 km
Speed
7.443 km/s
True Right ascension
16h 53m 48s
True Declination
0° 00' 00"
Sunlit
Object was in full shadow at epoch
Visualization orbit readout
Latitude
-79.12356°
Longitude
52.86144°
Altitude
838.537 km
Speed
7.428 km/s
Apparent Right ascension
01h 45m 47s
Apparent Declination
-60° 39' 02"
Sunlit
Object is in daylight
Visualization observer readout
Local Sidereal Time
13:49:08
Azimuth
178.844° S
Elevation
-69.259°
Doppler factor
1
Orbital elements
Apogee altitude
810.873 km
Perigee altitude
786.006 km
Semi-major axis
7,176.577 km
Eccentricity
0.00173
Inclination
98.6454°
RAAN
253.4501°
Arg. of periapsis
130.3201°
True anomaly
Unknown
Mean anomaly
229.9497°
Eccentric anomaly
Unknown
Mean motion
3.56999 °/min
Orbital period
100.84 mins
BSTAR
0.00068961
Loading maneuver chart data...
Loading SW <> Apogee altitude chart data...
Loading historical data...
Loading historical data...
Loading historical data...
Loading historical data...
Loading historical data...
Loading historical data...
Loading historical data...

NOAA 16 DEB Visibility forecast

Observer location: undefined°, undefined°

Span
Click to sort rows by Start time (UTC) header in descending order
Start Az.
Max El. time (UTC)
Max El. Az.
Max El.
End time (UTC)
End Az.
9 mins2025-07-01 04:27:02.602Z147.852° SSE2025-07-01 04:32:02.602Z66.108° ENE39.281°2025-07-01 04:36:02.602Z358.615° N
5 mins2025-07-01 06:10:02.602Z242.399° WSW2025-07-01 06:12:02.602Z269.361° W16.619°2025-07-01 06:15:02.602Z306.103° NW
6 mins2025-07-01 16:44:02.602Z57.787° ENE2025-07-01 16:47:02.602Z101.769° ESE19.592°2025-07-01 16:50:02.602Z139.426° SSE
8 mins2025-07-01 18:23:02.602Z352.935° N2025-07-01 18:26:02.602Z302.452° NW34.595°2025-07-01 18:31:02.602Z219.729° SW
|